JAL626 RJFT-RJTT

Flight info

Callsign JAL626
Flight time 1h 29m
Altitude 33000
Route MIFNE1 SPIDE Y23 ARTIC Y71 XAC XAC1B
Aircraft B738/M-V/N

Departure

Time 2026-05-04 04:36
Airport Kumamoto Airport (RJFT)

Arrival

Time 2026-05-04 06:05
Airport Tokyo Haneda International Airport (RJTT)
Time Latitude Longitude Altitude Speed Heading
2026-05-04 03:58 32.83465 130.85702 635 ft 0 kts 155°
2026-05-04 04:24 32.83475 130.85697 639 ft 3 kts 155°
2026-05-04 04:24 32.83494 130.85687 638 ft 3 kts 156°
2026-05-04 04:24 32.83512 130.85677 635 ft 3 kts 156°
2026-05-04 04:25 32.83531 130.85667 635 ft 3 kts 157°
2026-05-04 04:25 32.83549 130.85658 640 ft 3 kts 156°
2026-05-04 04:25 32.83565 130.85650 636 ft 3 kts 154°
2026-05-04 04:25 32.83581 130.85638 636 ft 3 kts 127°
2026-05-04 04:26 32.83588 130.85619 637 ft 3 kts 84°
2026-05-04 04:26 32.83583 130.85597 637 ft 3 kts 64°
2026-05-04 04:26 32.83578 130.85585 637 ft 1 kts 64°
2026-05-04 04:26 32.83576 130.85582 636 ft 0 kts 64°
2026-05-04 04:31 32.83577 130.85583 636 ft 1 kts 64°
2026-05-04 04:31 32.83591 130.85619 636 ft 10 kts 64°
2026-05-04 04:31 32.83631 130.85718 634 ft 15 kts 65°
2026-05-04 04:31 32.83673 130.85825 635 ft 14 kts 65°
2026-05-04 04:32 32.83715 130.85929 639 ft 14 kts 64°
2026-05-04 04:32 32.83760 130.86040 637 ft 16 kts 64°
2026-05-04 04:32 32.83814 130.86177 636 ft 20 kts 64°
2026-05-04 04:32 32.83872 130.86321 646 ft 19 kts 64°
2026-05-04 04:33 32.83928 130.86462 640 ft 18 kts 64°
2026-05-04 04:33 32.83982 130.86596 640 ft 18 kts 65°
2026-05-04 04:33 32.84034 130.86727 644 ft 17 kts 64°
2026-05-04 04:33 32.84085 130.86851 647 ft 17 kts 64°
2026-05-04 04:34 32.84129 130.86962 648 ft 9 kts 64°
2026-05-04 04:34 32.84175 130.87001 650 ft 8 kts
2026-05-04 04:34 32.84231 130.86987 650 ft 8 kts 336°
2026-05-04 04:34 32.84281 130.86958 652 ft 8 kts 333°
2026-05-04 04:35 32.84291 130.86902 650 ft 8 kts 248°
2026-05-04 04:35 32.84261 130.86825 649 ft 17 kts 244°
2026-05-04 04:35 32.84103 130.86432 644 ft 89 kts 244°
2026-05-04 04:35 32.83746 130.85543 630 ft 150 kts 245°
2026-05-04 04:36 32.83203 130.84287 873 ft 180 kts 246°
2026-05-04 04:36 32.82669 130.83004 2156 ft 167 kts 241°
2026-05-04 04:36 32.82109 130.81839 3113 ft 162 kts 240°
2026-05-04 04:36 32.81607 130.80611 3821 ft 171 kts 244°
2026-05-04 04:37 32.79316 130.77045 5062 ft 219 kts 196°
2026-05-04 04:37 32.77743 130.76917 5455 ft 234 kts 188°
2026-05-04 04:38 32.76058 130.76876 5652 ft 250 kts 188°
2026-05-04 04:38 32.74327 130.76818 6093 ft 250 kts 189°
2026-05-04 04:38 32.72589 130.76724 6530 ft 255 kts 190°
2026-05-04 04:38 32.70818 130.76606 7075 ft 255 kts 191°
2026-05-04 04:39 32.69036 130.76475 7649 ft 259 kts 192°
2026-05-04 04:39 32.67233 130.76337 8254 ft 259 kts 191°
2026-05-04 04:39 32.65404 130.76602 8830 ft 277 kts 169°
2026-05-04 04:39 32.63727 130.77854 9456 ft 299 kts 144°
2026-05-04 04:40 32.62571 130.80002 10069 ft 323 kts 119°
2026-05-04 04:40 32.61816 130.82560 10609 ft 335 kts 115°
2026-05-04 04:40 32.61079 130.85191 11030 ft 347 kts 115°
2026-05-04 04:40 32.60298 130.87945 11450 ft 359 kts 113°
2026-05-04 04:41 32.59960 130.90954 11903 ft 381 kts 89°
2026-05-04 04:41 32.60430 130.94101 12389 ft 394 kts 78°
2026-05-04 04:41 32.61076 130.97306 12856 ft 403 kts 78°
2026-05-04 04:41 32.61710 131.00540 13393 ft 402 kts 78°
2026-05-04 04:42 32.62326 131.03801 14008 ft 408 kts 78°
2026-05-04 04:42 32.63233 131.07012 14533 ft 414 kts 60°
2026-05-04 04:42 32.64676 131.09915 15146 ft 416 kts 56°
2026-05-04 04:42 32.66220 131.12840 15707 ft 421 kts 55°
2026-05-04 04:43 32.67280 131.14824 16093 ft 424 kts 55°
2026-05-04 04:43 32.68825 131.17726 16654 ft 427 kts 55°
2026-05-04 04:43 32.70408 131.20725 17260 ft 431 kts 56°
2026-05-04 04:43 32.71997 131.23764 17838 ft 433 kts 56°
2026-05-04 04:44 32.73581 131.26811 18440 ft 435 kts 56°
2026-05-04 04:44 32.75167 131.29888 18947 ft 438 kts 56°
2026-05-04 04:44 32.76756 131.32977 19511 ft 440 kts 57°
2026-05-04 04:44 32.78351 131.36087 20031 ft 441 kts 57°
2026-05-04 04:45 32.79929 131.39163 20521 ft 445 kts 57°
2026-05-04 04:45 32.81545 131.42320 21011 ft 449 kts 57°
2026-05-04 04:45 32.83173 131.45505 21460 ft 452 kts 57°
2026-05-04 04:47 32.93319 131.65375 23811 ft 483 kts 58°
2026-05-04 04:47 32.95058 131.68794 24214 ft 484 kts 58°
2026-05-04 04:47 32.96804 131.72229 24613 ft 486 kts 58°
2026-05-04 04:47 32.98562 131.75688 24971 ft 490 kts 58°
2026-05-04 04:48 33.00333 131.79178 25346 ft 493 kts 58°
2026-05-04 04:49 33.07493 131.93323 26736 ft 504 kts 58°
2026-05-04 04:49 33.09278 131.96857 27076 ft 506 kts 58°
2026-05-04 04:49 33.11098 132.00463 27442 ft 508 kts 58°
2026-05-04 04:49 33.12924 132.04085 27765 ft 511 kts 58°
2026-05-04 04:50 33.14757 132.07725 28056 ft 514 kts 58°
2026-05-04 04:50 33.16597 132.11383 28346 ft 517 kts 58°
2026-05-04 04:50 33.18459 132.15088 28675 ft 519 kts 58°
2026-05-04 04:50 33.20320 132.18795 28974 ft 521 kts 58°
2026-05-04 04:51 33.22181 132.22507 29260 ft 524 kts 58°
2026-05-04 04:51 33.24056 132.26250 29546 ft 526 kts 57°
2026-05-04 04:51 33.25941 132.30015 29861 ft 528 kts 57°
2026-05-04 04:51 33.27803 132.33740 30163 ft 529 kts 57°
2026-05-04 04:52 33.29688 132.37515 30482 ft 529 kts 57°
2026-05-04 04:52 33.31573 132.41294 30851 ft 528 kts 57°
2026-05-04 04:52 33.33444 132.45051 31187 ft 527 kts 57°
2026-05-04 04:52 33.35326 132.48808 31531 ft 526 kts 56°
2026-05-04 04:53 33.37352 132.52461 31887 ft 524 kts 52°
2026-05-04 04:53 33.39489 132.55995 32203 ft 524 kts 50°
2026-05-04 04:53 33.41678 132.59494 32438 ft 527 kts 50°
2026-05-04 04:53 33.43856 132.62968 32626 ft 530 kts 50°
2026-05-04 04:54 33.46050 132.66511 32855 ft 530 kts 51°
2026-05-04 04:54 33.48219 132.70065 32949 ft 527 kts 51°
2026-05-04 04:54 33.52517 132.77203 32952 ft 530 kts 51°
2026-05-04 04:55 33.56823 132.84387 32937 ft 532 kts 51°
2026-05-04 04:55 33.61117 132.91547 32927 ft 533 kts 51°
2026-05-04 04:56 33.65103 132.99048 32899 ft 537 kts 68°
2026-05-04 04:56 33.67203 133.07644 32917 ft 536 kts 75°
2026-05-04 04:57 33.69123 133.16290 32913 ft 537 kts 75°
2026-05-04 04:57 33.71126 133.24871 32908 ft 536 kts 74°
2026-05-04 04:58 33.73182 133.33456 32890 ft 534 kts 73°
2026-05-04 04:58 33.75226 133.42022 32915 ft 533 kts 73°
2026-05-04 04:59 33.77256 133.50593 32888 ft 532 kts 73°
2026-05-04 04:59 33.79262 133.59089 32889 ft 531 kts 73°
2026-05-04 05:00 33.81280 133.67628 32864 ft 531 kts 73°
2026-05-04 05:01 33.84310 133.80472 32897 ft 533 kts 73°
2026-05-04 05:01 33.85981 133.87587 32889 ft 530 kts 73°
2026-05-04 05:02 33.88292 133.97475 32886 ft 527 kts 73°
2026-05-04 05:02 33.90267 134.05958 32867 ft 525 kts 74°
2026-05-04 05:03 33.92227 134.14406 32876 ft 523 kts 73°
2026-05-04 05:04 33.95793 134.29834 32869 ft 522 kts 73°
2026-05-04 05:04 33.98050 134.39651 32863 ft 526 kts 73°
2026-05-04 05:06 34.05529 134.72506 32852 ft 531 kts 73°
2026-05-04 05:07 34.07472 134.81109 32838 ft 532 kts 73°
2026-05-04 05:07 34.09073 134.88223 32855 ft 530 kts 73°
2026-05-04 05:09 34.17689 135.26801 32846 ft 531 kts 74°
2026-05-04 05:10 34.19596 135.35422 32843 ft 532 kts 74°
2026-05-04 05:10 34.21503 135.44072 32835 ft 532 kts 74°
2026-05-04 05:11 34.23400 135.52712 32843 ft 531 kts 74°
2026-05-04 05:11 34.25268 135.61246 32838 ft 528 kts 74°
2026-05-04 05:12 34.27135 135.69809 32831 ft 527 kts 74°
2026-05-04 05:12 34.29004 135.78411 32836 ft 531 kts 75°
2026-05-04 05:13 34.30875 135.87048 32823 ft 531 kts 75°
2026-05-04 05:13 34.32734 135.95672 32796 ft 529 kts 75°
2026-05-04 05:14 34.34572 136.04224 32807 ft 529 kts 75°
2026-05-04 05:14 34.36420 136.12851 32810 ft 529 kts 75°
2026-05-04 05:15 34.38257 136.21485 32808 ft 530 kts 75°
2026-05-04 05:15 34.40091 136.30145 32791 ft 532 kts 75°
2026-05-04 05:16 34.41910 136.38760 32803 ft 531 kts 75°
2026-05-04 05:16 34.43738 136.47450 32790 ft 534 kts 75°
2026-05-04 05:17 34.45566 136.56180 32788 ft 535 kts 75°
2026-05-04 05:17 34.47086 136.63463 32775 ft 535 kts 75°
2026-05-04 05:18 34.48890 136.72135 32776 ft 534 kts 76°
2026-05-04 05:18 34.50703 136.80886 32781 ft 536 kts 76°
2026-05-04 05:19 34.52514 136.89656 32776 ft 537 kts 76°
2026-05-04 05:19 34.54018 136.98506 32940 ft 535 kts 94°
2026-05-04 05:20 34.54158 137.07490 32840 ft 541 kts 99°
2026-05-04 05:20 34.54089 137.16662 32759 ft 546 kts 98°
2026-05-04 05:21 34.54110 137.25846 32740 ft 540 kts 98°
2026-05-04 05:21 34.54176 137.34927 32748 ft 539 kts 98°
2026-05-04 05:22 34.54231 137.44018 32751 ft 540 kts 98°
2026-05-04 05:22 34.54273 137.53060 32747 ft 540 kts 98°
2026-05-04 05:23 34.54309 137.62169 32549 ft 539 kts 98°
2026-05-04 05:23 34.54317 137.66707 32369 ft 538 kts 98°
2026-05-04 05:23 34.54320 137.71248 32195 ft 538 kts 98°
2026-05-04 05:24 34.54320 137.75777 32023 ft 539 kts 98°
2026-05-04 05:24 34.54319 137.80326 31848 ft 539 kts 98°
2026-05-04 05:24 34.54317 137.84816 31679 ft 539 kts 98°
2026-05-04 05:24 34.54315 137.89357 31506 ft 539 kts 98°
2026-05-04 05:25 34.54312 137.93914 31325 ft 539 kts 98°
2026-05-04 05:25 34.54308 137.98458 31148 ft 539 kts 98°
2026-05-04 05:25 34.54302 138.03005 30975 ft 539 kts 98°
2026-05-04 05:25 34.54293 138.07546 30792 ft 538 kts 98°
2026-05-04 05:26 34.54284 138.12089 30629 ft 538 kts 98°
2026-05-04 05:26 34.54273 138.16623 30409 ft 540 kts 98°
2026-05-04 05:26 34.54260 138.21185 30121 ft 540 kts 98°
2026-05-04 05:26 34.54248 138.25666 29850 ft 539 kts 98°
2026-05-04 05:27 34.54233 138.30227 29407 ft 541 kts 98°
2026-05-04 05:28 34.63513 138.60925 26242 ft 568 kts 64°
2026-05-04 05:29 34.65304 138.65201 25811 ft 569 kts 65°
2026-05-04 05:29 34.67049 138.69438 25394 ft 568 kts 65°
2026-05-04 05:29 34.68795 138.73695 24953 ft 557 kts 66°
2026-05-04 05:29 34.70216 138.78011 24534 ft 544 kts 76°
2026-05-04 05:31 34.71444 139.08066 21456 ft 488 kts 97°
2026-05-04 05:31 34.71424 139.12176 21008 ft 487 kts 97°
2026-05-04 05:32 34.71398 139.16314 20569 ft 490 kts 97°
2026-05-04 05:32 34.71368 139.20469 20139 ft 494 kts 97°
2026-05-04 05:32 34.71338 139.24630 19701 ft 488 kts 97°
2026-05-04 05:33 34.71278 139.32778 18855 ft 479 kts 97°
2026-05-04 05:33 34.71242 139.36838 18461 ft 479 kts 97°
2026-05-04 05:33 34.71447 139.40833 18053 ft 486 kts 83°
2026-05-04 05:33 34.72542 139.44721 17587 ft 488 kts 64°
2026-05-04 05:34 34.74181 139.48301 17162 ft 480 kts 60°
2026-05-04 05:34 34.75864 139.51781 16714 ft 474 kts 60°
2026-05-04 05:34 34.77517 139.55221 16270 ft 469 kts 61°
2026-05-04 05:34 34.79121 139.58644 15835 ft 464 kts 62°
2026-05-04 05:35 34.80685 139.62051 15403 ft 459 kts 62°
2026-05-04 05:35 34.82229 139.65429 14986 ft 454 kts 60°
2026-05-04 05:35 34.84119 139.68406 14526 ft 449 kts 40°
2026-05-04 05:35 34.86597 139.70606 14138 ft 435 kts 21°
2026-05-04 05:36 34.89256 139.71888 13771 ft 421 kts
2026-05-04 05:36 34.92040 139.72928 13360 ft 417 kts
2026-05-04 05:36 34.94782 139.73981 13168 ft 408 kts
2026-05-04 05:36 34.97440 139.75073 13158 ft 405 kts 14°
2026-05-04 05:37 34.99893 139.76894 13161 ft 422 kts 38°
2026-05-04 05:37 35.02016 139.79413 13162 ft 429 kts 43°
2026-05-04 05:37 35.04079 139.81976 13149 ft 428 kts 43°
2026-05-04 05:38 35.07391 139.87597 13126 ft 389 kts 76°
2026-05-04 05:38 35.07856 139.90699 13123 ft 358 kts 97°
2026-05-04 05:38 35.07678 139.93658 13147 ft 342 kts 111°
2026-05-04 05:38 35.07066 139.96377 13158 ft 323 kts 126°
2026-05-04 05:39 35.06043 139.98727 13160 ft 308 kts 138°
2026-05-04 05:39 35.03692 140.03053 13140 ft 305 kts 139°
2026-05-04 05:39 35.02556 140.05255 13142 ft 314 kts 129°
2026-05-04 05:40 35.01449 140.10694 13163 ft 340 kts 112°
2026-05-04 05:40 35.00978 140.13499 13152 ft 337 kts 113°
2026-05-04 05:40 35.00487 140.16292 13155 ft 335 kts 114°
2026-05-04 05:41 35.00012 140.19076 13158 ft 340 kts 108°
2026-05-04 05:41 35.00054 140.22024 13177 ft 354 kts 91°
2026-05-04 05:41 35.00349 140.25011 13170 ft 356 kts 90°
2026-05-04 05:41 35.00632 140.28013 13172 ft 356 kts 91°
2026-05-04 05:42 35.00888 140.30976 13171 ft 357 kts 91°
2026-05-04 05:42 35.01245 140.33983 13155 ft 364 kts 78°
2026-05-04 05:42 35.02266 140.36824 13188 ft 366 kts 65°
2026-05-04 05:42 35.03436 140.39585 13173 ft 366 kts 64°
2026-05-04 05:43 35.04720 140.42254 13146 ft 365 kts 49°
2026-05-04 05:43 35.06603 140.44249 13178 ft 355 kts 22°
2026-05-04 05:43 35.08842 140.45280 13169 ft 337 kts 358°
2026-05-04 05:45 35.20619 140.38022 11541 ft 255 kts 306°
2026-05-04 05:45 35.22008 140.36691 11332 ft 252 kts 306°
2026-05-04 05:47 35.31836 140.27350 9923 ft 251 kts 308°
2026-05-04 05:47 35.33207 140.26052 9720 ft 248 kts 308°
2026-05-04 05:47 35.34564 140.24765 9527 ft 245 kts 308°
2026-05-04 05:48 35.35903 140.23493 9317 ft 244 kts 308°
2026-05-04 05:48 35.37402 140.22404 9142 ft 264 kts 327°
2026-05-04 05:48 35.39307 140.22081 9052 ft 290 kts 348°
2026-05-04 05:48 35.41336 140.22191 8903 ft 295 kts 351°
2026-05-04 05:49 35.42795 140.22320 8818 ft 294 kts 352°
2026-05-04 05:49 35.44833 140.22510 8702 ft 292 kts 351°
2026-05-04 05:49 35.46844 140.22688 8588 ft 287 kts 351°
2026-05-04 05:49 35.48826 140.22851 8481 ft 284 kts 351°
2026-05-04 05:51 35.62125 140.22691 7798 ft 253 kts 327°
2026-05-04 05:51 35.63779 140.21945 7713 ft 253 kts 328°
2026-05-04 05:52 35.65435 140.21212 7618 ft 254 kts 329°
2026-05-04 05:52 35.67100 140.20482 7531 ft 254 kts 329°
2026-05-04 05:52 35.68764 140.19753 7446 ft 253 kts 327°
2026-05-04 05:52 35.70157 140.18621 7349 ft 232 kts 302°
2026-05-04 05:53 35.70988 140.16994 7269 ft 221 kts 286°
2026-05-04 05:54 35.74550 140.04276 6742 ft 230 kts 284°
2026-05-04 05:55 35.75073 140.02414 6652 ft 230 kts 284°
2026-05-04 05:55 35.75590 140.00579 6569 ft 230 kts 285°
2026-05-04 05:55 35.76113 139.98720 6492 ft 230 kts 284°
2026-05-04 05:55 35.76636 139.96857 6418 ft 231 kts 285°
2026-05-04 05:56 35.77162 139.94987 6335 ft 231 kts 285°
2026-05-04 05:56 35.77686 139.93119 6259 ft 231 kts 285°
2026-05-04 05:56 35.78209 139.91247 6179 ft 232 kts 285°
2026-05-04 05:56 35.78743 139.89345 6073 ft 236 kts 285°
2026-05-04 05:57 35.79279 139.87433 6035 ft 238 kts 286°
2026-05-04 05:57 35.79819 139.85504 5891 ft 242 kts 286°
2026-05-04 05:57 35.80367 139.83544 5592 ft 245 kts 286°
2026-05-04 05:57 35.80920 139.81570 5354 ft 242 kts 286°
2026-05-04 05:58 35.81343 139.79586 5132 ft 237 kts 277°
2026-05-04 05:58 35.81623 139.77597 4920 ft 234 kts 277°
2026-05-04 05:58 35.81825 139.75626 4695 ft 229 kts 265°
2026-05-04 05:58 35.81414 139.73784 4526 ft 221 kts 242°
2026-05-04 05:59 35.80493 139.72328 4432 ft 212 kts 221°
2026-05-04 05:59 35.79267 139.71320 4343 ft 211 kts 212°
2026-05-04 05:59 35.78023 139.70452 4261 ft 204 kts 212°
2026-05-04 05:59 35.76812 139.69618 4165 ft 195 kts 213°
2026-05-04 06:00 35.75657 139.68820 4051 ft 184 kts 212°
2026-05-04 06:00 35.74451 139.68431 3930 ft 178 kts 186°
2026-05-04 06:00 35.73222 139.68595 3835 ft 177 kts 178°
2026-05-04 06:00 35.72012 139.68860 3726 ft 176 kts 178°
2026-05-04 06:01 35.70820 139.69128 3598 ft 173 kts 178°
2026-05-04 06:01 35.69640 139.69419 3456 ft 177 kts 172°
2026-05-04 06:03 35.62993 139.74125 1818 ft 127 kts 168°
2026-05-04 06:03 35.62228 139.74666 1614 ft 127 kts 167°
2026-05-04 06:05 35.56941 139.78411 283 ft 123 kts 159°
2026-05-04 06:05 35.55584 139.79367 28 ft 75 kts 149°
2026-05-04 06:05 35.55280 139.79581 29 ft 40 kts 150°
2026-05-04 06:06 35.55108 139.79701 29 ft 22 kts 157°
2026-05-04 06:06 35.54959 139.79745 30 ft 22 kts 174°
2026-05-04 06:06 35.54904 139.79749 30 ft 1 kts 176°
2026-05-04 06:06 35.54878 139.79746 29 ft 7 kts 191°
2026-05-04 06:07 35.54837 139.79704 30 ft 10 kts 238°
2026-05-04 06:07 35.54797 139.79619 30 ft 13 kts 240°
2026-05-04 06:07 35.54749 139.79517 30 ft 14 kts 240°
2026-05-04 06:07 35.54703 139.79421 30 ft 13 kts 240°
2026-05-04 06:08 35.54658 139.79326 30 ft 13 kts 240°
2026-05-04 06:08 35.54614 139.79234 30 ft 12 kts 239°
2026-05-04 06:08 35.54569 139.79138 30 ft 14 kts 240°
2026-05-04 06:08 35.54521 139.79036 33 ft 13 kts 240°
2026-05-04 06:09 35.54474 139.78938 30 ft 14 kts 240°
2026-05-04 06:09 35.54425 139.78834 30 ft 14 kts 239°
2026-05-04 06:11 35.54455 139.78386 29 ft 8 kts 330°
2026-05-04 06:11 35.54507 139.78349 29 ft 11 kts 330°
2026-05-04 06:13 35.54776 139.78335 29 ft 0 kts 20°